Location: NJAA Observatory
(40.6819°N, 74.8979°W)
Time: 13:08:29
(UTC-04:00)

Vanguard 1 - All Passes

Search period start: 20 June 2018 00:00
Search period end: 30 June 2018 00:00
Orbit: 650 x 3833 km, 34.3° (Epoch: 19 June)

Date Brightness Start Highest point End Pass type
(mag) Time Alt. Az. Time Alt. Az. Time Alt. Az.
20 Jun - 05:21:54 10° S 05:29:10 25° SE 05:40:11 10° E daylight
20 Jun - 07:38:31 10° SW 07:49:42 59° SSE 08:09:23 10° E daylight
20 Jun - 09:58:37 10° W 10:13:59 71° S 10:37:16 10° ESE daylight
20 Jun - 12:20:57 10° W 12:39:54 56° SSW 13:02:04 10° SE daylight
20 Jun - 14:46:59 10° W 15:04:16 29° SW 15:20:51 10° S daylight
21 Jun - 05:41:28 10° SSW 05:49:25 32° SE 06:02:26 10° E daylight
21 Jun - 07:59:08 10° WSW 08:10:41 64° SSE 08:31:05 10° E daylight
21 Jun - 10:19:37 10° W 10:35:21 69° S 10:58:39 10° ESE daylight
21 Jun - 12:42:17 10° W 13:01:03 50° SSW 13:22:28 10° SE daylight
21 Jun - 15:09:59 10° W 15:24:50 22° SW 15:39:09 10° S daylight
22 Jun - 06:01:26 10° SSW 06:09:50 40° SE 06:24:23 10° E daylight
22 Jun - 08:19:53 10° WSW 08:31:48 68° S 08:52:45 10° E daylight
22 Jun - 10:40:40 10° W 10:56:43 65° SSW 11:19:52 10° ESE daylight
22 Jun - 13:03:48 10° W 13:22:04 42° SW 13:42:32 10° SSE daylight
22 Jun - 15:34:30 10° W 15:45:20 15° SW 15:55:54 10° SSW daylight
23 Jun - 04:07:30 10° SSE 04:11:21 14° SE 04:16:10 10° E visible
23 Jun - 06:21:41 10° SW 06:30:26 48° SSE 06:46:10 10° E daylight
23 Jun - 08:40:42 10° WSW 08:53:00 70° S 09:14:23 10° E daylight
23 Jun - 11:01:45 10° W 11:18:01 60° SSW 11:40:52 10° SE daylight
23 Jun - 13:25:34 10° W 13:42:59 35° SW 14:02:09 10° SSE daylight
24 Jun - 04:26:00 10° S 04:31:28 20° SE 04:39:19 10° E visible
24 Jun - 06:42:07 10° SW 06:51:12 56° SSE 07:07:52 10° E daylight
24 Jun - 09:01:34 10° W 09:14:15 69° S 09:35:56 10° ESE daylight
24 Jun - 11:22:54 10° W 11:39:16 54° SSW 12:01:37 10° SE daylight
24 Jun - 13:47:45 10° W 14:03:49 28° SW 14:21:11 10° S daylight
25 Jun - 04:45:28 10° SSW 04:51:42 28° SE 05:01:34 10° E visible
25 Jun - 07:02:43 10° WSW 07:12:06 61° SSE 07:29:33 10° E daylight
25 Jun - 09:22:30 10° W 09:35:32 67° S 09:57:23 10° ESE daylight
25 Jun - 11:44:10 10° W 12:00:27 47° SSW 12:22:03 10° SE daylight
25 Jun - 14:10:42 10° W 14:24:34 21° SW 14:39:21 10° S daylight
26 Jun - 05:05:24 10° SSW 05:12:06 36° SE 05:23:27 10° E daylight
26 Jun - 07:23:25 10° WSW 07:33:06 65° S 07:51:12 10° E daylight
26 Jun - 09:43:27 10° W 09:56:48 63° SSW 10:18:38 10° ESE daylight
26 Jun - 12:05:36 10° W 12:21:34 40° SSW 12:42:05 10° SSE daylight
26 Jun - 14:35:12 10° WSW 14:45:18 15° SW 14:55:50 10° SSW daylight
27 Jun - 05:25:37 10° SW 05:32:39 44° SSE 05:45:10 10° E daylight
27 Jun - 07:44:10 10° WSW 07:54:12 67° S 08:12:49 10° E daylight
27 Jun - 10:04:28 10° W 10:18:03 57° SSW 10:39:41 10° SE daylight
27 Jun - 12:27:18 10° W 12:42:36 33° SW 13:01:39 10° SSE daylight
28 Jun - 03:30:24 10° S 03:34:12 16° SE 03:39:10 10° E visible
28 Jun - 05:46:02 10° SW 05:53:22 51° SSE 06:06:47 10° E daylight
28 Jun - 08:05:00 10° W 08:15:20 66° S 08:34:22 10° ESE daylight
28 Jun - 10:25:33 10° W 10:39:16 51° SSW 11:00:27 10° SE daylight
28 Jun - 12:49:27 10° W 13:03:35 26° SW 13:20:35 10° S daylight
29 Jun - 03:49:40 10° S 03:54:29 23° SE 04:01:30 10° E visible
29 Jun - 06:06:36 10° WSW 06:14:11 58° SSE 06:28:23 10° E daylight
29 Jun - 08:25:51 10° W 08:36:30 64° S 08:55:47 10° ESE daylight
29 Jun - 10:46:45 10° W 11:00:27 44° SSW 11:20:52 10° SE daylight
29 Jun - 13:12:26 10° W 13:24:32 20° SW 13:38:31 10° S daylight
